Skip Page Navigation
NASA JPL Caltech
NASA Logo - Jet Propulsion Laboratory + View the NASA Portal
+ Near-Earth Object (NEO) Program
Search JPL
JPL Home Earth Solar System Stars & Galaxies Technology
JPL Solar System Dynamics
BODIES ORBITS EPHEMERIDES TOOLS PHYSICAL DATA DISCOVERY FAQ SITE MAP
JPL Small-Body Database Browser
Search: [ help ]  
(2012 DW60)
Classification: Apollo [NEO]          SPK-ID: 3600236
Ephemeris | Orbit Diagram | Orbital Elements | Physical Parameters | Close-Approach Data ]

[ hide orbit diagram ]
Orbit Diagram
Note: Make sure you have Java enabled on your browser to see the applet. This applet is provided as a 3D orbit visualization tool. The applet was implemented using 2-body methods, and hence should not be used for determining accurate long-term trajectories (over several years or decades) or planetary encounter circumstances. For accurate long-term ephemerides, please instead use our Horizons system.
Orbit Viewer

Additional Notes: the orbits shown in the applet are color coded. The planets are white lines, and the asteroid/comet is a blue line. The bright white line indicates the portion of the orbit that is above the ecliptic plane, and the darker portion is below the ecliptic plane. Likewise for the asteroid/comet orbit, the light blue indicates the portion above the ecliptic plane, and the dark blue the portion below the ecliptic plane.

Orbit Viewer applet originally written and kindly provided by Osamu Ajiki (AstroArts), and further modified by Ron Baalke (JPL).


Orbital Elements at Epoch 2456400.5 (2013-Apr-18.0) TDB
Reference: JPL 15 (heliocentric ecliptic J2000)
 Element Value Uncertainty (1-sigma)   Units 
e .1678393152459862 1.2242e-06  
a 1.111369262610477 1.9482e-06 AU
q .9248378065884982 3.8968e-07 AU
i 4.821897596413977 1.3811e-05 deg
node 353.6856717748461 2.5085e-05 deg
peri 237.8878758734904 0.0003516 deg
M 294.1141705818229 0.00052476 deg
tp 2456478.820511564059
(2013-Jul-05.32051156)
0.00082911 JED
period 427.9430707945576
1.17
0.0011253
3.081e-06
d
yr
n .8412333895992091 2.212e-06 deg/d
Q 1.297900718632457 2.2752e-06 AU
  Orbit Determination Parameters
   # obs. used (total)      61  
   # delay obs. used      0  
   # Doppler obs. used      2  
   data-arc span      12 days  
   first obs. used      2012-02-29  
   last obs. used      2012-03-12  
   planetary ephem.      DE405  
   SB-pert. ephem.      SB405-CPV-2  
   condition code      3  
   fit RMS      .34491  
   data source      ORB  
   producer      Otto Matic  
   solution date      2012-Mar-13 00:50:30  

Additional Information
 Earth MOID = .00144837 AU 
 T_jup = 5.590 
[ show covariance matrix ]

Ephemeris | Orbit Diagram | Orbital Elements | Physical Parameters | Close-Approach Data ]

Physical Parameter Table
Parameter Symbol Value Units Sigma Reference Notes
absolute magnitude H 26.459 mag .38214 15 autocmod 2.5b

[ show close-approach data ]
Ephemeris | Orbit Diagram | Orbital Elements | Physical Parameters | Close-Approach Data ]
ABOUT SSD CREDITS/AWARDS PRIVACY/COPYRIGHT GLOSSARY LINKS
FirstGov 2013-May-24 02:33 UT
(server date/time)  
NASA Home Page
Site Manager:   Donald K. Yeomans
Webmaster  Alan B. Chamberlin